Date,TemperatureHighF,TemperatureAvgF,TemperatureLowF,DewpointHighF,DewpointAvgF,DewpointLowF,HumidityHigh,HumidityAvg,HumidityLow,PressureMaxIn,PressureMinIn,WindSpeedMaxMPH,WindSpeedAvgMPH,GustSpeedMaxMPH,PrecipitationSumIn
2013-3-1,39.0,35.5,21.2,26.4,19.4,4.2,72,53,40,28.09,28.09,8,1,10,0.00
2013-3-2,46.4,36.3,30.2,27.0,20.7,13.2,78,56,28,28.09,28.09,6,1,9,0.00
2013-3-3,41.0,35.7,31.8,34.5,24.7,13.4,90,66,41,28.09,28.09,6,1,8,0.04
2013-3-4,37.9,33.5,29.7,14.1,10.2,7.2,44,37,30,28.09,28.09,10,5,16,0.00
2013-3-5,43.7,36.8,30.6,23.7,15.9,9.6,56,42,31,28.09,28.09,8,2,11,0.00
2013-3-6,37.9,35.6,33.1,34.7,28.5,19.7,93,76,49,28.09,28.09,5,2,9,0.09
2013-3-7,34.5,33.0,30.6,29.5,21.8,15.2,86,64,46,28.09,28.09,8,3,11,0.00
2013-3-8,44.4,36.1,29.1,32.2,19.4,0.5,95,60,20,28.09,28.09,8,3,16,0.12
2013-3-9,42.6,35.6,28.6,18.0,11.1,1.1,59,37,21,28.09,28.09,5,1,8,0.04
2013-3-10,41.5,33.9,26.8,25.3,18.1,14.8,66,53,38,28.09,28.09,4,0,5,0.00
2013-3-11,46.9,39.4,34.2,33.0,26.0,21.3,77,60,38,28.09,28.09,4,1,5,0.00
2013-3-12,47.3,43.3,39.4,46.8,40.3,32.3,98,89,74,28.09,28.09,4,0,7,0.29
2013-3-13,53.2,43.1,30.6,46.2,27.2,5.6,98,62,18,28.09,28.09,8,1,9,0.00
2013-3-14,37.6,30.9,21.4,15.6,5.5,-10.5,56,35,20,28.09,28.09,12,3,19,0.00
2013-3-15,40.6,28.0,17.8,18.2,-4.6,-14.6,58,24,16,28.09,28.09,10,3,15,0.00
2013-3-16,37.0,30.6,22.6,23.5,3.4,-7.5,73,34,17,28.09,28.09,8,2,10,0.00
2013-3-17,34.5,27.7,21.9,0.8,-6.9,-14.5,36,21,15,28.09,28.09,12,4,18,0.00
2013-3-18,36.0,26.1,13.8,11.6,-5.7,-18.4,40,24,17,28.09,28.09,5,1,6,0.00
2013-3-19,34.3,31.7,25.3,32.9,23.6,11.4,98,74,40,29.65,28.09,4,0,6,0.01
2013-3-20,38.7,30.0,23.7,28.3,17.9,7.6,97,65,29,29.77,29.65,0,0,0,0.00
2013-3-21,40.3,30.4,21.2,14.2,8.0,3.2,54,39,23,29.77,29.59,4,0,5,0.00
2013-3-22,41.7,33.1,27.7,17.6,7.3,-1.7,64,35,18,29.68,29.59,7,1,10,0.00
2013-3-23,43.3,34.3,25.9,12.1,6.2,-0.2,45,32,18,29.71,29.56,11,4,17,0.09
2013-3-24,46.9,36.9,29.7,14.8,10.6,6.4,44,34,19,29.80,29.71,10,2,15,0.12
2013-3-25,41.2,36.4,30.6,22.8,17.3,10.8,52,45,40,29.77,29.56,5,1,7,0.00
2013-3-26,52.3,41.5,33.1,19.9,6.9,-2.5,51,26,13,29.74,29.56,9,3,14,0.00
2013-3-27,53.4,40.7,29.8,26.5,12.1,4.1,63,33,16,29.86,28.09,8,2,11,0.00
2013-3-28,48.2,41.7,36.5,31.7,21.3,14.1,79,47,26,29.98,29.86,7,2,10,0.00
2013-3-29,57.4,45.1,35.8,24.0,16.1,5.8,53,34,14,30.01,29.95,8,2,10,0.00
2013-3-30,52.2,43.6,34.2,19.7,14.4,6.6,47,31,19,30.06,29.98,5,1,9,0.00
2013-3-31,50.7,40.7,26.1,25.8,14.6,4.1,49,36,16,30.09,29.80,5,1,8,0.00